Location: ??????
(42.0089°N, 44.3281°E)
Time: 19:39:55
(UTC+00:00)

Cosmos 614 Rocket - Pass Details

Date: 24 October 2021
Orbit: 733 x 763 km, 74.1° (Epoch: 02 December)

Event Time Altitude Azimuth Distance (km) Brightness Sun altitude
Rises 15:19:50 0° 345° (NNW) 3,172 7.3 -14.1°
Reaches altitude 10° 15:22:16 10° 351° (N) 2,248 6.5 -14.5°
Maximum altitude 15:27:11 47° 66° (ENE) 970 4.1 -15.4°
Enters shadow 15:31:36 13° 138° (SE) 2,075 5.9 -16.3°
